Location: Carrières
(48.9495°N, 2.0407°E)
Time: 12:52:40
(UTC+00:00)

deb Kosmos-2227 - Pass Details

Date: 24 May 2025
Orbit: 823 x 993 km, 71.2° (Epoch: 15 June)

Event Time Altitude Azimuth Distance (km) Brightness Sun altitude
Rises 02:21:15 0° 147° (SSE) 3,589 ? -12.4°
Reaches altitude 10° 02:24:59 10° 125° (SE) 2,684 ? -12.1°
Maximum altitude 02:28:09 14° 94° (E) 2,399 ? -11.7°
Drops below altitude 10° 02:31:22 10° 63° (ENE) 2,737 ? -11.4°
Sets 02:35:13 0° 41° (NE) 3,708 ? -11.0°
